1513566000.31,54507,6.38,72770.8,-16.97,-27.07,-26.07,0,*6B
1513566001.54,54508,6.38,72766.5,-16.97,-27.07,-26.39,0,*69
1513566002.81,54509,6.38,72772.8,-16.95,-27.03,-26.13,0,*66
1513566004.08,54510,6.38,72770.3,-16.95,-27.13,-26.13,0,*6F
1513566005.33,54511,6.38,72776.0,-16.97,-27.13,-26.29,0,*65
1513566006.59,54512,6.38,72780.0,-16.97,-27.45,-26.55,0,*6E
1513566007.82,54513,6.44,72782.3,-16.97,-27.29,-26.45,0,*64
1513566009.11,54514,6.38,72778.5,-16.95,-27.23,-26.13,0,*68
1513566010.36,54515,6.38,72774.0,-16.97,-27.45,-26.39,0,*63
1513566011.66,54516,6.38,72774.0,-16.95,-27.45,-26.55,0,*68
1513566012.93,54517,6.38,72772.5,-16.97,-27.61,-26.55,0,*6D
1513566014.17,54518,6.38,72774.0,-16.95,-27.55,-26.61,0,*60
1513566015.44,54519,6.38,72778.3,-16.95,-27.55,-26.55,0,*66
1513566016.71,54520,6.38,72774.5,-16.97,-27.45,-26.55,0,*6F
1513566017.93,54521,6.38,72772.8,-16.97,-27.93,-27.03,0,*67
1513566019.17,54522,6.38,72772.8,-16.95,-27.77,-26.61,0,*69
1513566020.39,54523,6.38,72770.3,-16.97,-27.71,-26.61,0,*6C
1513566021.63,54524,6.38,72778.3,-16.95,-27.55,-26.61,0,*6F
1513566022.91,54525,6.38,72780.8,-16.95,-27.61,-26.45,0,*6F
1513566024.13,54526,6.38,72778.8,-16.97,-27.55,-26.45,0,*69
1513566025.41,54527,6.38,72772.8,-16.95,-27.61,-26.61,0,*6B
1513566026.68,54528,6.44,72774.5,-16.97,-27.61,-26.71,0,*67
1513566027.98,54529,6.38,72772.0,-16.95,-27.61,-26.55,0,*62
1513566029.28,54530,6.38,72780.3,-16.95,-27.61,-26.71,0,*6C
1513566030.5,54531,6.38,72780.3,-16.97,-27.55,-26.61,0,*69
1513566031.74,54532,6.38,72776.3,-16.95,-27.89,-26.87,0,*61
1513566032.96,54533,6.38,72778.5,-16.97,-27.77,-26.61,0,*6B
1513566034.26,54534,6.38,72772.3,-16.95,-27.61,-26.71,0,*68
1513566035.53,54535,6.44,72780.0,-16.95,-27.93,-26.93,0,*68
1513566036.77,54536,6.38,72780.3,-16.97,-27.89,-26.77,0,*68
1513566037.99,54537,6.38,72776.5,-16.97,-27.89,-26.87,0,*66
1513566039.23,54538,6.38,72780.8,-16.97,-27.89,-26.93,0,*6C
1513566040.48,54539,6.38,72780.3,-16.95,-27.71,-26.61,0,*65
1513566041.69,54540,6.38,72786.8,-16.97,-27.55,-26.61,0,*6F
1513566042.93,54541,6.38,72784.3,-16.97,-27.71,-26.71,0,*69
1513566044.18,54542,6.38,72784.8,-16.97,-27.89,-26.77,0,*6B
1513566045.45,54543,6.38,72784.3,-16.95,-27.71,-26.71,0,*69
1513566046.66,54544,6.44,72790.3,-16.97,-27.55,-26.61,0,*6B
1513566047.96,54545,6.44,72790.8,-16.95,-27.61,-26.55,0,*68
1513566049.23,54546,6.38,72786.0,-16.95,-27.45,-26.45,0,*6C
1513566050.45,54547,6.38,72782.5,-16.97,-27.71,-26.61,0,*6E
1513566051.67,54548,6.38,72782.5,-16.97,-27.71,-26.61,0,*61
1513566052.91,54549,6.44,72782.8,-16.97,-27.71,-26.71,0,*61
1513566054.16,54550,6.38,72782.0,-16.97,-27.61,-26.61,0,*69
1513566055.38,54551,6.38,72780.5,-16.97,-27.71,-26.61,0,*69
1513566056.65,54552,6.44,72776.8,-16.95,-27.77,-26.71,0,*6F
1513566057.86,54553,6.38,72774.5,-16.97,-27.71,-26.61,0,*6B
1513566059.11,54554,6.38,72774.5,-16.95,-27.71,-26.61,0,*6E
1513566060.35,54555,6.38,72772.5,-16.95,-27.77,-26.87,0,*61
1513566061.59,54556,6.38,72774.8,-16.95,-28.15,-27.13,0,*65
1513566062.82,54557,6.38,72770.3,-16.97,-28.31,-27.29,0,*69
1513566064.09,54558,6.38,72770.0,-16.95,-28.15,-27.23,0,*68
1513566065.33,54559,6.38,72782.5,-16.97,-28.43,-27.29,0,*62
1513566066.58,54560,6.38,72772.8,-16.97,-28.25,-27.13,0,*61
1513566067.84,54561,6.38,72768.8,-16.97,-28.43,-27.45,0,*63
1513566069.1,54562,6.38,72768.0,-16.97,-28.47,-27.45,0,*64
1513566070.37,54563,6.38,72764.8,-16.99,-28.31,-27.39,0,*61
1513566071.59,54564,6.38,72766.8,-17.01,-28.53,-27.51,0,*6C
1513566072.89,54565,6.38,72768.8,-16.99,-28.47,-27.39,0,*66
1513566074.18,54566,6.38,72776.0,-16.99,-28.47,-27.45,0,*6E
1513566075.45,54567,6.38,72778.5,-16.99,-28.31,-27.23,0,*6E
1513566076.7,54568,6.38,72774.0,-17.03,-28.37,-27.29,0,*6F
1513566077.98,54569,6.38,72772.5,-16.99,-28.25,-27.13,0,*66
1513566079.24,54570,6.38,72780.5,-17.01,-27.99,-26.97,0,*6B
1513566080.49,54571,6.38,72778.0,-16.99,-27.77,-26.61,0,*63
1513566081.71,54572,6.38,72776.3,-17.01,-27.89,-26.87,0,*69
1513566082.97,54573,6.38,72780.8,-17.01,-27.83,-26.81,0,*64
1513566084.24,54574,6.38,72780.0,-17.01,-27.83,-26.77,0,*6A
1513566085.51,54575,6.38,72786.0,-16.99,-27.89,-26.77,0,*61
1513566086.76,54576,6.38,72782.0,-17.01,-27.93,-26.81,0,*60
1513566088.03,54577,6.38,72780.0,-17.01,-27.99,-26.81,0,*6B
1513566089.27,54578,6.38,72782.3,-17.01,-28.31,-27.35,0,*67
1513566090.52,54579,6.38,72778.5,-16.99,-28.31,-27.29,0,*6B
1513566091.8,54580,6.38,72780.8,-17.01,-28.21,-27.19,0,*6F
1513566093.07,54581,6.38,72778.8,-16.99,-28.05,-27.07,0,*67
1513566094.32,54582,6.38,72776.5,-17.01,-27.93,-26.81,0,*6B
1513566095.57,54583,6.38,72776.8,-17.01,-27.61,-26.65,0,*6D
1513566096.82,54584,6.38,72776.8,-17.01,-27.61,-26.49,0,*64
1513566098.09,54585,6.38,72776.5,-16.99,-27.45,-26.45,0,*6F
1513566099.36,54586,6.38,72778.0,-16.99,-27.45,-26.45,0,*6C
1513566100.58,54587,6.38,72776.3,-16.97,-27.55,-26.61,0,*64
1513566101.85,54588,6.38,72778.5,-16.97,-27.61,-26.55,0,*6B
1513566103.16,54589,6.38,72778.3,-16.99,-27.61,-26.55,0,*64
1513566104.46,54590,6.38,72778.0,-16.99,-27.61,-26.71,0,*6A
1513566105.7,54591,6.38,72774.8,-16.97,-27.55,-26.55,0,*64
1513566106.92,54592,6.38,72780.8,-16.97,-27.55,-26.45,0,*66
1513566108.16,54593,6.38,72776.3,-16.97,-27.55,-26.55,0,*66
1513566109.4,54594,6.38,72778.3,-16.97,-27.55,-26.55,0,*61
1513566110.67,54595,6.38,72776.3,-16.97,-27.61,-26.55,0,*67
1513566111.92,54596,6.38,72776.8,-16.97,-27.61,-26.45,0,*65
1513566113.22,54597,6.38,72776.8,-16.95,-27.61,-26.55,0,*67
1513566114.47,54598,6.38,72776.3,-16.95,-27.71,-26.61,0,*6E
1513566115.73,54599,6.38,72778.8,-16.95,-27.55,-26.55,0,*6E
1513566117.03,54600,6.38,72778.8,-16.95,-27.61,-26.55,0,*6A
1513566118.3,54601,6.38,72780.8,-16.95,-27.55,-26.55,0,*6C
1513566119.57,54602,6.38,72778.5,-16.95,-27.55,-26.55,0,*6F
1513566120.83,54603,6.38,72780.8,-16.95,-27.39,-26.45,0,*65
1513566122.08,54604,6.38,72778.8,-16.95,-27.77,-26.87,0,*66
1513566123.35,54605,6.38,72776.0,-16.95,-27.71,-26.71,0,*68
1513566124.59,54606,6.38,72778.5,-16.89,-27.93,-26.81,0,*65
1513566125.87,54607,6.38,72778.3,-16.91,-28.09,-27.03,0,*6A
1513566127.14,54608,6.38,72772.5,-16.91,-28.05,-27.03,0,*69
1513566128.44,54609,6.44,72778.5,-16.91,-28.25,-27.19,0,*61
1513566129.71,54610,6.38,72774.8,-16.91,-28.37,-27.19,0,*6A
1513566130.98,54611,6.38,72776.8,-16.91,-28.09,-26.87,0,*60
1513566132.26,54612,6.38,72776.5,-16.91,-28.05,-27.03,0,*62
1513566133.54,54613,6.38,72778.5,-16.95,-28.05,-27.03,0,*67
1513566134.81,54614,6.38,72780.3,-16.95,-28.09,-27.07,0,*68
1513566136.08,54615,6.38,72782.8,-16.95,-28.09,-27.07,0,*69
1513566137.33,54616,6.38,72782.3,-16.95,-27.93,-27.03,0,*62
1513566138.6,54617,6.38,72780.5,-16.95,-27.93,-26.93,0,*6B
1513566139.87,54618,6.38,72784.0,-16.91,-28.37,-27.19,0,*62
1513566141.15,54619,6.38,72786.5,-16.91,-28.21,-27.03,0,*6F
1513566142.39,54620,6.38,72784.3,-16.95,-28.15,-27.07,0,*62
1513566143.61,54621,6.38,72786.3,-16.97,-28.31,-27.13,0,*62
1513566144.9,54622,6.38,72790.3,-16.95,-28.47,-27.39,0,*6A
1513566146.19,54623,6.38,72790.3,-16.95,-28.43,-27.39,0,*6F
1513566147.49,54624,6.38,72788.3,-16.95,-28.43,-27.23,0,*63
1513566148.77,54625,6.38,72788.3,-16.95,-28.43,-27.45,0,*62
1513566150.04,54626,6.38,72788.8,-16.97,-28.75,-27.61,0,*60
1513566151.29,54627,6.38,72792.0,-16.97,-28.79,-27.71,0,*6C
1513566152.53,54628,6.38,72788.8,-16.97,-28.79,-27.71,0,*63
1513566153.8,54629,6.38,72788.8,-16.97,-28.75,-27.61,0,*6F
1513566155.07,54630,6.38,72788.0,-16.97,-28.63,-27.61,0,*60
1513566156.32,54631,6.38,72788.3,-16.97,-28.91,-27.77,0,*6B
1513566157.57,54632,6.38,72788.5,-16.97,-28.91,-27.77,0,*68
1513566158.87,54633,6.38,72788.3,-16.99,-28.63,-27.61,0,*6D
1513566160.17,54634,6.44,72794.0,-16.99,-28.59,-27.61,0,*63
1513566161.44,54635,6.38,72792.8,-16.99,-28.59,-27.55,0,*65
1513566162.69,54636,6.38,72792.0,-17.01,-28.79,-27.67,0,*65
1513566163.99,54637,6.38,72792.0,-16.99,-28.59,-27.61,0,*60
1513566165.21,54638,6.38,72788.0,-17.01,-28.69,-27.67,0,*6A
1513566166.43,54639,6.38,72786.0,-17.01,-28.53,-27.51,0,*67
1513566167.66,54640,6.38,72786.8,-17.01,-28.37,-27.29,0,*64
1513566168.93,54641,6.38,72788.3,-17.01,-27.99,-26.97,0,*6A
1513566170.17,54642,6.38,72784.3,-17.01,-28.31,-27.35,0,*6D
1513566171.45,54643,6.38,72788.8,-16.99,-28.25,-27.13,0,*6D
1513566172.7,54644,6.38,72786.8,-17.01,-28.21,-27.13,0,*6E
1513566173.94,54645,6.38,72786.8,-17.01,-28.31,-27.19,0,*64
1513566175.18,54646,6.38,72782.5,-17.01,-28.31,-27.19,0,*67
1513566176.39,54647,6.38,72786.0,-17.01,-28.15,-27.13,0,*6A
1513566177.63,54648,6.38,72780.8,-17.01,-28.31,-27.19,0,*69
1513566178.89,54649,6.38,72784.3,-17.01,-28.47,-27.45,0,*60
1513566180.14,54650,6.38,72778.5,-17.01,-28.37,-27.19,0,*66
1513566181.41,54651,6.38,72782.0,-17.01,-28.21,-27.19,0,*60
1513566182.67,54652,6.38,72784.5,-17.01,-27.99,-26.93,0,*6C
1513566183.95,54653,6.38,72782.3,-16.99,-28.09,-27.03,0,*63
1513566185.23,54654,6.38,72786.8,-16.99,-28.25,-27.07,0,*6E
1513566186.5,54655,6.38,72790.3,-16.99,-28.25,-27.13,0,*6A
1513566187.78,54656,6.38,72788.8,-16.99,-28.05,-27.07,0,*6E
1513566189.05,54657,6.38,72786.0,-16.99,-27.89,-26.77,0,*62
1513566190.27,54658,6.38,72786.3,-17.01,-28.15,-27.07,0,*61
1513566191.57,54659,6.38,72786.0,-16.99,-28.05,-26.93,0,*6D
1513566192.87,54660,6.38,72786.3,-16.99,-28.05,-26.93,0,*67
1513566194.14,54661,6.38,72780.8,-16.99,-27.89,-26.93,0,*6D
1513566195.42,54662,6.38,72786.5,-16.99,-27.93,-26.77,0,*6F
1513566196.69,54663,6.38,72788.5,-16.99,-27.93,-26.77,0,*6E
1513566197.97,54664,6.38,72786.8,-16.99,-27.77,-26.71,0,*65
1513566199.22,54665,6.38,72786.8,-16.99,-28.15,-27.03,0,*6B
1513566200.51,54666,6.38,72788.8,-16.99,-28.43,-27.39,0,*62
1513566201.76,54667,6.38,72786.3,-17.01,-28.53,-27.35,0,*6E
1513566203.03,54668,6.38,72790.5,-16.99,-28.31,-27.23,0,*62
1513566204.25,54669,6.38,72786.3,-17.01,-28.31,-27.07,0,*65
1513566205.5,54670,6.38,72782.8,-17.01,-28.15,-26.97,0,*63
1513566206.77,54671,6.38,72780.3,-17.01,-28.09,-26.81,0,*68
1513566208.04,54672,6.38,72788.3,-16.99,-27.93,-26.77,0,*6E
1513566209.26,54673,6.38,72790.5,-16.97,-27.89,-26.87,0,*65
1513566210.5,54674,6.38,72784.3,-16.97,-28.43,-27.29,0,*6E
1513566211.77,54675,6.38,72788.3,-16.97,-28.47,-27.61,0,*67
1513566213.04,54676,6.38,72790.8,-16.97,-28.43,-27.39,0,*6D
1513566214.28,54677,6.38,72788.8,-16.97,-28.43,-27.29,0,*6D
1513566215.58,54678,6.38,72796.5,-16.99,-28.43,-27.39,0,*6D
1513566216.87,54679,6.38,72796.5,-16.99,-28.43,-27.45,0,*67
1513566218.11,54680,6.38,72790.8,-16.97,-28.75,-27.55,0,*6B
1513566219.41,54681,6.38,72790.3,-16.99,-28.63,-27.61,0,*64
1513566220.71,54682,6.38,72790.5,-16.99,-28.47,-27.39,0,*6C
1513566221.97,54683,6.38,72788.5,-17.01,-28.47,-27.45,0,*66
1513566223.26,54684,6.38,72790.3,-16.99,-28.47,-27.39,0,*6A
1513566224.53,54685,6.38,72790.8,-16.99,-28.59,-27.55,0,*6E
1513566225.81,54686,6.38,72790.8,-16.99,-28.59,-27.55,0,*6D
1513566227.06,54687,6.38,72794.5,-17.01,-28.53,-27.35,0,*60
1513566228.35,54688,6.38,72792.8,-16.99,-28.43,-27.23,0,*69
1513566229.65,54689,6.38,72790.8,-16.99,-28.59,-27.45,0,*63
1513566230.92,54690,6.38,72788.0,-16.99,-28.43,-27.29,0,*6A
1513566232.17,54691,6.38,72788.3,-16.99,-28.31,-27.13,0,*67
1513566233.45,54692,6.38,72788.0,-16.99,-28.25,-27.07,0,*64
1513566234.69,54693,6.38,72784.3,-17.01,-28.21,-27.07,0,*61
1513566235.97,54694,6.38,72788.8,-16.99,-28.43,-27.29,0,*6E
1513566237.24,54695,6.38,72784.8,-17.01,-28.43,-27.35,0,*62
1513566238.5,54696,6.44,72792.0,-17.01,-28.47,-27.45,0,*62
1513566239.79,54697,6.38,72788.0,-16.99,-28.47,-27.39,0,*68
1513566241.09,54698,6.38,72786.0,-16.99,-28.43,-27.23,0,*68
1513566242.33,54699,6.38,72788.3,-16.99,-28.31,-27.13,0,*6F
1513566243.6,54700,6.38,72784.5,-17.01,-28.47,-27.35,0,*6B
1513566244.85,54701,6.38,72788.0,-17.01,-28.53,-27.39,0,*63
1513566246.12,54702,6.38,72788.3,-16.99,-28.47,-27.29,0,*64
1513566247.41,54703,6.38,72788.5,-16.99,-28.47,-27.39,0,*64
1513566248.66,54704,6.38,72788.5,-17.01,-28.53,-27.35,0,*6A
1513566249.94,54705,6.38,72788.8,-16.99,-28.43,-27.29,0,*67
1513566251.18,54706,6.38,72792.3,-17.01,-28.37,-27.19,0,*64
1513566252.43,54707,6.38,72790.5,-17.01,-28.37,-27.19,0,*65
1513566253.68,54708,6.38,72790.3,-16.99,-28.15,-27.07,0,*65
1513566254.89,54709,6.38,72788.5,-17.01,-28.15,-27.07,0,*64
1513566256.13,54710,6.38,72790.3,-17.01,-28.31,-27.19,0,*65
1513566257.4,54711,6.38,72788.3,-17.01,-28.47,-27.35,0,*6B
1513566258.66,54712,6.44,72792.5,-17.01,-28.47,-27.45,0,*6F
1513566259.96,54713,6.38,72788.3,-16.99,-28.75,-27.61,0,*69
1513566261.23,54714,6.38,72786.3,-16.99,-28.75,-27.71,0,*6F
1513566262.52,54715,6.38,72786.5,-16.99,-28.47,-27.39,0,*63
1513566263.77,54716,6.38,72784.0,-17.01,-28.47,-27.29,0,*61
1513566265.03,54717,6.38,72784.3,-17.01,-28.47,-27.35,0,*6D
1513566266.31,54718,6.38,72786.8,-16.99,-28.43,-27.29,0,*6B
1513566267.53,54719,6.38,72788.0,-17.01,-28.37,-27.29,0,*69
1513566268.76,54720,6.38,72784.8,-17.01,-28.37,-27.29,0,*63
1513566269.98,54721,6.38,72782.0,-17.01,-28.37,-27.13,0,*6B
1513566271.22,54722,6.38,72784.3,-17.01,-28.31,-27.19,0,*64
1513566272.47,54723,6.38,72782.3,-17.01,-28.37,-27.35,0,*6D
1513566273.76,54724,6.38,72784.3,-16.99,-28.43,-27.23,0,*6E
1513566275.03,54725,6.38,72786.8,-17.01,-28.47,-27.35,0,*6C
1513566276.31,54726,6.38,72786.8,-16.99,-28.43,-27.29,0,*66
1513566277.53,54727,6.38,72784.0,-17.01,-28.53,-27.51,0,*69
1513566278.78,54728,6.38,72792.3,-16.99,-28.37,-27.29,0,*6B
1513566280.05,54729,6.38,72790.0,-17.01,-28.47,-27.35,0,*60
1513566281.34,54730,6.38,72786.0,-16.99,-28.47,-27.39,0,*64
1513566282.58,54731,6.38,72780.0,-17.01,-28.53,-27.45,0,*6B
1513566283.83,54732,6.38,72784.3,-17.01,-28.37,-27.23,0,*6A
1513566285.1,54733,6.38,72782.0,-16.99,-28.43,-27.29,0,*62
1513566286.4,54734,6.38,72782.0,-16.99,-28.43,-27.23,0,*6F
1513566287.65,54735,6.38,72776.5,-17.01,-28.37,-27.19,0,*64
1513566288.9,54736,6.38,72780.3,-17.01,-28.47,-27.45,0,*69
1513566290.15,54737,6.38,72776.0,-17.01,-28.47,-27.29,0,*62
1513566291.42,54738,6.38,72780.0,-16.99,-28.31,-27.23,0,*66
1513566292.68,54739,6.38,72782.0,-17.01,-28.47,-27.35,0,*61
1513566293.96,54740,6.38,72780.5,-16.99,-28.31,-27.23,0,*69
1513566295.22,54741,6.38,72780.3,-17.01,-28.47,-27.35,0,*6E
1513566296.52,54742,6.38,72776.8,-16.99,-28.43,-27.23,0,*6E
1513566297.74,54743,6.38,72772.8,-17.01,-28.53,-27.51,0,*6B
1513566299.04,54744,6.38,72776.5,-16.99,-28.59,-27.61,0,*65
1513566300.33,54745,6.38,72772.5,-16.99,-28.47,-27.39,0,*66
1513566301.63,54746,6.38,72778.0,-16.99,-28.43,-27.39,0,*61
1513566302.88,54747,6.38,72772.5,-17.01,-28.53,-27.35,0,*6D
1513566304.1,54748,6.38,72778.3,-17.01,-28.37,-27.13,0,*64
1513566305.34,54749,6.38,72776.5,-17.01,-28.47,-27.29,0,*6B
1513566306.58,54750,6.38,72776.0,-17.01,-28.53,-27.45,0,*6C
1513566307.88,54751,6.38,72780.8,-16.99,-28.43,-27.39,0,*67
1513566309.1,54752,6.38,72778.5,-17.01,-28.37,-27.13,0,*6F
1513566310.34,54753,6.38,72780.3,-17.01,-28.15,-26.93,0,*67
1513566311.64,54754,6.38,72776.8,-16.99,-28.05,-26.93,0,*61
1513566312.94,54755,6.38,72778.8,-16.99,-28.05,-26.93,0,*60
1513566314.22,54756,6.44,72784.5,-16.99,-28.09,-27.03,0,*67
1513566315.49,54757,6.38,72780.3,-16.99,-28.31,-27.23,0,*6F
1513566316.77,54758,6.38,72782.8,-16.99,-28.09,-27.03,0,*69
1513566318.04,54759,6.38,72780.3,-16.99,-28.25,-27.13,0,*67
1513566319.29,54760,6.38,72778.3,-17.01,-28.43,-27.29,0,*64
1513566320.58,54761,6.38,72776.3,-16.99,-28.47,-27.39,0,*60
1513566321.86,54762,6.38,72778.0,-16.99,-28.25,-27.13,0,*6F
1513566323.1,54763,6.38,72778.8,-17.01,-28.43,-27.29,0,*67
1513566324.38,54764,6.38,72778.8,-16.99,-28.25,-27.07,0,*6C
1513566325.62,54765,6.38,72782.0,-16.99,-28.15,-27.13,0,*6B
1513566326.92,54766,6.38,72780.0,-16.99,-28.43,-27.23,0,*68
1513566328.22,54767,6.44,72784.0,-16.99,-28.47,-27.39,0,*66
1513566329.44,54768,6.38,72782.5,-17.01,-28.53,-27.51,0,*62
1513566330.71,54769,6.44,72782.5,-16.99,-28.59,-27.55,0,*6D
1513566332.0,54770,6.38,72780.5,-16.99,-28.47,-27.23,0,*6B
1513566333.22,54771,6.38,72778.8,-17.01,-28.53,-27.51,0,*6A
1513566334.47,54772,6.38,72778.8,-17.01,-28.53,-27.45,0,*6C
1513566335.74,54773,6.38,72772.8,-16.99,-28.53,-27.39,0,*66
1513566336.99,54774,6.38,72766.8,-17.01,-28.63,-27.51,0,*6C
1513566338.28,54775,6.38,72770.5,-16.99,-28.47,-27.45,0,*6E
1513566339.55,54776,6.38,72772.3,-16.99,-28.47,-27.29,0,*67
1513566340.79,54777,6.38,72772.0,-16.97,-28.31,-27.23,0,*63
1513566342.03,54778,6.38,72774.3,-17.01,-28.31,-27.19,0,*6B
1513566343.25,54779,6.38,72770.5,-17.01,-28.31,-27.13,0,*60
1513566344.51,54780,6.38,72774.5,-17.01,-28.47,-27.35,0,*63
1513566345.76,54781,6.38,72774.3,-17.01,-28.53,-27.45,0,*60
1513566347.03,54782,6.38,72774.3,-16.99,-28.31,-27.23,0,*67
1513566348.28,54783,6.38,72774.5,-16.99,-28.31,-27.29,0,*6C
1513566349.52,54784,6.38,72772.8,-16.99,-28.31,-27.13,0,*62
1513566350.79,54785,6.38,72774.5,-16.99,-28.43,-27.13,0,*66
1513566352.07,54786,6.38,72772.8,-16.99,-28.25,-27.07,0,*60
1513566353.29,54787,6.38,72768.0,-17.01,-28.31,-27.13,0,*61
1513566354.58,54788,6.38,72768.8,-16.99,-28.09,-26.93,0,*6C
1513566355.83,54789,6.38,72768.3,-16.99,-27.93,-26.87,0,*64
1513566357.11,54790,6.38,72764.0,-16.99,-28.05,-26.87,0,*6C
1513566358.38,54791,6.38,72764.5,-16.99,-27.89,-26.77,0,*69
1513566359.63,54792,6.38,72772.0,-16.99,-27.93,-26.61,0,*66
1513566360.88,54793,6.38,72770.3,-16.99,-27.89,-26.61,0,*6C
1513566362.12,54794,6.38,72764.8,-16.99,-27.89,-26.87,0,*63
1513566363.43,54795,6.38,72770.5,-16.99,-28.05,-26.77,0,*66
1513566364.67,54796,6.38,72772.3,-16.97,-27.77,-26.77,0,*61
1513566365.94,54797,6.38,72774.5,-16.95,-28.15,-26.93,0,*63
1513566367.16,54798,6.38,72774.3,-16.97,-28.15,-27.07,0,*62
1513566368.4,54799,6.38,72776.5,-16.95,-28.31,-27.13,0,*62
1513566369.68,54800,6.38,72772.5,-16.95,-28.25,-27.29,0,*61
1513566370.93,54801,6.38,72776.3,-16.95,-28.31,-27.29,0,*65
1513566372.17,54802,6.38,72778.0,-16.97,-28.43,-27.29,0,*61
1513566373.46,54803,6.38,72774.0,-16.95,-28.47,-27.39,0,*67
1513566374.7,54804,6.38,72774.8,-16.97,-28.47,-27.55,0,*68
1513566375.97,54805,6.38,72772.3,-16.97,-28.59,-27.39,0,*6C
1513566377.21,54806,6.38,72776.8,-16.97,-28.47,-27.55,0,*6A
1513566378.46,54807,6.38,72772.5,-16.97,-28.63,-27.55,0,*6D
1513566379.71,54808,6.38,72772.0,-16.97,-28.47,-27.45,0,*65
1513566380.96,54809,6.38,72774.3,-16.97,-28.59,-27.55,0,*6A
1513566382.25,54810,6.38,72776.5,-16.95,-28.47,-27.39,0,*65
1513566383.55,54811,6.38,72774.5,-16.95,-28.59,-27.39,0,*6B
1513566384.79,54812,6.38,72778.0,-16.99,-28.31,-27.13,0,*62
1513566386.01,54813,6.38,72778.0,-16.97,-28.31,-27.13,0,*6D
1513566387.25,54814,6.38,72780.3,-16.95,-28.31,-27.13,0,*68
1513566388.47,54815,6.38,72776.3,-16.97,-28.31,-27.03,0,*6A
1513566389.71,54816,6.38,72778.8,-16.97,-28.59,-27.55,0,*64
1513566390.99,54817,6.38,72780.8,-16.97,-28.63,-27.61,0,*6B
1513566392.23,54818,6.38,72782.5,-16.97,-28.75,-27.55,0,*64
1513566393.53,54819,6.38,72782.8,-16.95,-28.63,-27.61,0,*67
1513566394.77,54820,6.38,72776.3,-16.97,-28.75,-27.55,0,*6F
1513566396.01,54821,6.38,72776.0,-16.97,-28.59,-27.55,0,*60
1513566397.28,54822,6.38,72776.5,-16.97,-28.47,-27.39,0,*66
1513566398.52,54823,6.38,72776.3,-16.97,-28.31,-27.23,0,*6D
1513566399.74,54824,6.38,72778.0,-16.97,-28.31,-27.07,0,*6C
1513566400.95,54825,6.38,72778.3,-16.97,-28.31,-27.13,0,*68
1513566402.19,54826,6.38,72780.3,-16.97,-28.43,-27.13,0,*6E
1513566403.46,54827,6.38,72778.8,-16.97,-28.43,-27.39,0,*67
1513566404.72,54828,6.38,72772.5,-16.97,-28.59,-27.45,0,*68
1513566405.99,54829,6.38,72774.0,-16.97,-28.59,-27.45,0,*69
1513566407.25,54830,6.38,72776.3,-16.97,-28.47,-27.39,0,*65
1513566408.52,54831,6.38,72774.0,-16.97,-28.47,-27.23,0,*6F
1513566409.8,54832,6.38,72772.5,-16.95,-28.47,-27.45,0,*6E
1513566411.09,54833,6.38,72766.8,-16.95,-28.59,-27.45,0,*60
1513566412.34,54834,6.38,72770.0,-16.97,-28.91,-27.55,0,*60
1513566413.61,54835,6.38,72768.8,-16.97,-28.59,-27.45,0,*64
1513566414.87,54836,6.38,72772.3,-16.97,-28.47,-27.23,0,*68
1513566416.14,54837,6.38,72772.0,-16.97,-28.43,-27.23,0,*6D
1513566417.4,54838,6.38,72774.3,-16.97,-28.47,-27.39,0,*6D
1513566418.69,54839,6.38,72772.3,-16.95,-28.47,-27.45,0,*65
1513566419.96,54840,6.38,72772.8,-16.97,-28.75,-27.61,0,*6E
1513566421.19,54841,6.38,72774.8,-16.97,-28.47,-27.55,0,*69
1513566422.46,54842,6.38,72772.8,-16.97,-28.75,-27.61,0,*6C
1513566423.74,54843,6.38,72776.8,-16.97,-28.79,-27.61,0,*61
1513566424.98,54844,6.38,72772.0,-16.97,-28.59,-27.55,0,*63
1513566426.22,54845,6.38,72768.5,-16.97,-28.63,-27.55,0,*6B
1513566427.47,54846,6.44,72778.0,-16.97,-28.75,-27.55,0,*6F
1513566428.73,54847,6.38,72770.3,-16.97,-28.59,-27.45,0,*61
1513566430.0,54848,6.38,72770.5,-16.95,-28.59,-27.55,0,*6D
1513566431.25,54849,6.38,72768.5,-16.97,-28.59,-27.29,0,*65
1513566432.52,54850,6.38,72774.8,-16.97,-28.59,-27.39,0,*6C
1513566433.8,54851,6.38,72774.3,-16.99,-28.43,-27.29,0,*69
1513566435.04,54852,6.38,72768.0,-16.97,-28.47,-27.29,0,*60
1513566436.31,54853,6.38,72768.5,-16.97,-28.47,-27.39,0,*60
1513566437.56,54854,6.38,72772.3,-16.97,-28.47,-27.45,0,*6C
1513566438.81,54855,6.38,72774.3,-16.97,-28.25,-27.07,0,*6F
1513566440.03,54856,6.38,72772.5,-16.97,-28.31,-27.13,0,*6C
1513566441.31,54857,6.38,72772.8,-16.95,-28.25,-27.03,0,*6B
1513566442.55,54858,6.38,72774.3,-16.97,-28.43,-27.07,0,*62
1513566443.82,54859,6.38,72778.0,-16.95,-28.47,-27.29,0,*69
1513566445.11,54860,6.38,72776.8,-16.95,-28.59,-27.45,0,*66
1513566446.38,54861,6.38,72774.5,-16.97,-28.75,-27.61,0,*6D
1513566447.6,54862,6.38,72772.8,-16.97,-29.07,-27.89,0,*6C
1513566448.85,54863,6.38,72772.8,-16.97,-28.91,-27.71,0,*64
1513566450.14,54864,6.38,72768.8,-16.99,-28.47,-27.45,0,*61
1513566451.4,54865,6.38,72774.3,-16.97,-28.43,-27.23,0,*6A
1513566452.64,54866,6.38,72768.3,-16.97,-28.43,-27.13,0,*6A
1513566453.89,54867,6.38,72770.0,-16.95,-28.31,-27.07,0,*69
1513566455.13,54868,6.38,72766.0,-16.97,-28.43,-27.13,0,*64
1513566456.42,54869,6.38,72770.8,-16.95,-28.43,-27.23,0,*64
1513566457.69,54870,6.38,72764.5,-16.95,-28.31,-27.23,0,*69
1513566458.93,54871,6.44,72778.8,-16.97,-28.43,-27.07,0,*69
1513566460.17,54872,6.38,72774.0,-16.95,-28.31,-27.13,0,*68
1513566461.39,54873,6.38,72772.8,-16.97,-28.31,-27.07,0,*6E
1513566462.64,54874,6.38,72774.8,-16.95,-28.15,-27.03,0,*69
1513566463.9,54875,6.38,72774.0,-16.97,-28.43,-27.23,0,*6B
1513566465.2,54876,6.38,72768.0,-16.95,-28.59,-27.45,0,*61
1513566466.47,54877,6.38,72768.0,-16.97,-28.63,-27.61,0,*6D
1513566467.74,54878,6.38,72770.3,-16.97,-28.59,-27.61,0,*6B
1513566469.0,54879,6.38,72770.3,-16.97,-28.47,-27.45,0,*63
1513566470.29,54880,6.38,72770.3,-16.95,-28.47,-27.23,0,*67
1513566471.53,54881,6.38,72768.0,-16.95,-28.31,-27.07,0,*61
1513566472.78,54882,6.38,72764.8,-16.95,-28.31,-27.13,0,*67
1513566474.02,54883,6.38,72766.8,-16.95,-28.31,-27.29,0,*6F
1513566475.29,54884,6.38,72770.8,-16.97,-28.43,-27.23,0,*65
1513566476.56,54885,6.38,72768.5,-16.91,-28.37,-27.19,0,*68
1513566477.8,54886,6.38,72768.0,-16.95,-28.31,-27.13,0,*63
1513566479.02,54887,6.38,72768.0,-16.97,-28.31,-27.07,0,*65
1513566480.3,54888,6.44,72774.0,-16.91,-28.25,-27.03,0,*6D
1513566481.6,54889,6.38,72770.5,-16.91,-28.25,-27.19,0,*67
1513566482.87,54890,6.38,72764.0,-16.91,-28.25,-27.07,0,*60
1513566484.17,54891,6.38,72768.3,-16.91,-28.43,-27.35,0,*60
1513566485.41,54892,6.38,72770.8,-16.89,-28.37,-27.19,0,*67
1513566486.7,54893,6.38,72770.0,-16.95,-28.43,-27.23,0,*61
1513566487.98,54894,6.38,72774.3,-16.91,-28.37,-27.19,0,*68
1513566489.25,54895,6.38,72770.3,-16.91,-28.37,-27.19,0,*69
1513566490.54,54896,6.38,72770.5,-16.91,-28.43,-27.23,0,*60
1513566491.83,54897,6.38,72772.0,-16.91,-28.43,-27.39,0,*6A
1513566493.11,54898,6.38,72774.3,-16.91,-28.75,-27.67,0,*6B
1513566494.35,54899,6.38,72774.0,-16.91,-28.69,-27.55,0,*66
1513566495.62,54900,6.38,72774.8,-16.89,-28.63,-27.45,0,*65
1513566496.86,54901,6.38,72774.5,-16.91,-28.69,-27.51,0,*62
1513566498.1,54902,6.38,72776.3,-16.91,-28.69,-27.55,0,*65
1513566499.35,54903,6.38,72772.5,-16.91,-28.85,-27.71,0,*60
1513566500.6,54904,6.38,72772.3,-16.91,-28.69,-27.67,0,*62
1513566501.87,54905,6.38,72776.3,-16.91,-28.59,-27.55,0,*61
1513566503.12,54906,6.38,72778.0,-16.91,-28.69,-27.55,0,*61